Regional Weather Roundup
Issued by NWS Albany, NY

Home | Current Version | Previous Version | Text Only | Print | Product List | Glossary On
Versions: 1 2 3 4 5 6 7 8 9 10 11 12 13 14 15 16 17 18 19 20 21 22 23 24 25 26 27
000
ASUS41 KALY 232110
RWRALY

NEW YORK STATE HOURLY WEATHER ROUNDUP
NATIONAL WEATHER SERVICE ALBANY NY
500 PM EDT TUE AUG 23 2016

NOTE: "FAIR" INDICATES FEW OR NO CLOUDS BELOW 12,000 FEET WITH NO
SIGNIFICANT WEATHER AND/OR NO OBSTRUCTIONS TO VISIBILITY.

NYZ032-033-038>043-046>054-057>066-NYZ062>081-082-084-232200-
EAST


CITY           SKY/WX    TMP DP  RH WIND       PRES   REMARKS
ALBANY         MOSUNNY   80  54  40 VRB6      30.23F
GLENS FALLS    SUNNY     79  56  45 SW9       30.21S
POUGHKEEPSIE   SUNNY     81  56  42 W6        30.24F
NEWBURGH       MOSUNNY   79  59  50 W9        30.27F
MONTGOMERY     SUNNY     80  57  45 SW8       30.25F
WHITE PLAINS   MOSUNNY   79  51  37 VRB7      30.26S
ISLIP          SUNNY     76  53  44 S10       30.26S
NEW YORK CITY  MOSUNNY   83  52  34 NW13      30.24F
CENTRAL PARK   SUNNY     80  55  42 VRB3      30.28S
$$

NYZ005>009-017-018-044>046-055-056-232200-
CENTRAL


CITY           SKY/WX    TMP DP  RH WIND       PRES   REMARKS
FULTON         MOSUNNY   80  58  46 W3        30.23F
SYRACUSE       MOSUNNY   79  57  46 SW7       30.23F
ROME           SUNNY     76  57  51 W7        30.25F
ELMIRA         SUNNY     79  53  40 VRB5      30.25F
BINGHAMTON     SUNNY     74  53  48 W8        30.29F
MONTICELLO     MOSUNNY   75  55  50 W9        30.30F
$$

NYZ026>034-041>043-087-232200-
NORTH


CITY           SKY/WX    TMP DP  RH WIND       PRES   REMARKS
WATERTOWN      SUNNY     77  55  46 SW12G21   30.22F
FORT DRUM      NOT AVBL
MASSENA        SUNNY     79  56  45 SW16G22   30.16F
SARANAC LAKE   SUNNY     74  52  46 SW12      30.23S
PLATTSBURGH    SUNNY     80  53  39 VRB5      30.15F
$$

NYZ001>004-010>016-019>021-085-232200-
WEST


CITY           SKY/WX    TMP DP  RH WIND       PRES   REMARKS
NIAGARA FALLS  MOSUNNY   80  55  42 W13       30.23F
BUFFALO        MOSUNNY   79  52  38 SW15      30.24F
DUNKIRK        SUNNY     76  59  55 VRB6      30.26F
JAMESTOWN      SUNNY     75  55  50 SW7       30.29F
WELLSVILLE     SUNNY     77  53  43 W7        30.32F
ROCHESTER      MOSUNNY   82  56  40 W7        30.23F
PENN YAN       SUNNY     80  53  39 SW8       30.26F
$$

             KEY
       WCI = WIND CHILL INDEX
       VSB = VISIBILITY
       HX  = HEAT INDEX
$$




USA.gov is the U.S. government's official web portal to all federal, state and local government web resources and services.